Time,TemperatureF,DewpointF,PressureIn,WindDirection,WindDirectionDegrees,WindSpeedMPH,WindSpeedGustMPH,Humidity,HourlyPrecipIn,Conditions,Clouds,dailyrainin,SolarRadiationWatts/m^2,SoftwareType,DateUTC
2013-03-14 21:37:00,59.9,45.5,30.10,SSW,205,2.0,2.0,59,0.00,,,0.00,0,Wunderground v.1.15,2013-03-15 01:37:00,
2013-03-14 21:40:00,59.9,46.0,30.10,SSW,213,2.0,3.0,60,0.00,,,0.00,0,Wunderground v.1.15,2013-03-15 01:40:00,
2013-03-14 21:45:00,59.8,46.3,30.11,SW,216,2.0,3.0,61,0.00,,,0.00,0,Wunderground v.1.15,2013-03-15 01:45:00,
2013-03-14 21:50:00,59.6,46.6,30.11,SSW,212,2.0,2.0,62,0.00,,,0.00,0,Wunderground v.1.15,2013-03-15 01:50:00,
2013-03-14 21:55:00,59.5,46.9,30.11,SSE,150,0.0,2.0,63,0.00,,,0.00,0,Wunderground v.1.15,2013-03-15 01:55:00,
2013-03-14 22:00:00,59.3,47.1,30.11,SSW,212,1.0,2.0,64,0.00,,,0.00,0,Wunderground v.1.15,2013-03-15 02:00:00,
2013-03-14 22:05:00,59.2,47.4,30.11,SSW,213,1.0,2.0,65,0.00,,,0.00,0,Wunderground v.1.15,2013-03-15 02:05:00,
2013-03-14 22:10:00,59.0,47.2,30.11,SSW,195,1.0,3.0,65,0.00,,,0.00,0,Wunderground v.1.15,2013-03-15 02:10:00,
2013-03-14 22:14:00,58.9,47.6,30.11,SSW,193,1.0,3.0,66,0.00,,,0.00,0,Wunderground v.1.15,2013-03-15 02:14:00,
2013-03-14 22:20:00,58.7,47.8,30.11,SSW,199,1.0,1.0,67,0.00,,,0.00,0,Wunderground v.1.15,2013-03-15 02:20:00,
2013-03-14 22:25:00,58.6,47.7,30.11,SSW,212,1.0,1.0,67,0.00,,,0.00,0,Wunderground v.1.15,2013-03-15 02:25:00,
2013-03-14 22:30:00,58.4,47.9,30.11,SSW,210,1.0,1.0,68,0.00,,,0.00,0,Wunderground v.1.15,2013-03-15 02:30:00,
2013-03-14 22:35:00,58.3,47.8,30.11,SW,215,1.0,7.0,68,0.00,,,0.00,0,Wunderground v.1.15,2013-03-15 02:35:00,
2013-03-14 22:45:00,58.0,47.9,30.11,SW,215,0.0,7.0,69,0.00,,,0.00,0,Wunderground v.1.15,2013-03-15 02:45:00,
2013-03-14 22:55:00,57.8,48.1,30.11,SW,215,0.0,7.0,70,0.00,,,0.00,0,Wunderground v.1.15,2013-03-15 02:55:00,
2013-03-14 23:00:00,57.6,47.9,30.11,SW,215,0.0,7.0,70,0.00,,,0.00,0,Wunderground v.1.15,2013-03-15 03:00:00,
2013-03-14 23:05:00,57.6,48.3,30.11,SW,215,0.0,7.0,71,0.00,,,0.00,0,Wunderground v.1.15,2013-03-15 03:05:00,
2013-03-14 23:10:00,57.5,48.2,30.11,SW,215,0.0,7.0,71,0.00,,,0.00,0,Wunderground v.1.15,2013-03-15 03:10:00,
2013-03-14 23:15:00,57.3,48.0,30.11,SW,215,0.0,7.0,71,0.00,,,0.00,0,Wunderground v.1.15,2013-03-15 03:15:00,
2013-03-14 23:20:00,57.3,48.3,30.11,SW,215,0.0,7.0,72,0.00,,,0.00,0,Wunderground v.1.15,2013-03-15 03:20:00,
2013-03-14 23:25:00,57.2,48.3,30.11,SW,215,0.0,7.0,72,0.00,,,0.00,0,Wunderground v.1.15,2013-03-15 03:25:00,
2013-03-14 23:35:00,56.9,48.3,30.11,SW,215,0.0,7.0,73,0.00,,,0.00,0,Wunderground v.1.15,2013-03-15 03:35:00,
2013-03-14 23:40:00,56.7,48.1,30.11,SW,215,0.0,7.0,73,0.00,,,0.00,0,Wunderground v.1.15,2013-03-15 03:40:00,
2013-03-14 23:45:00,56.6,48.0,30.11,SW,215,0.0,7.0,73,0.00,,,0.00,0,Wunderground v.1.15,2013-03-15 03:45:00,
2013-03-14 23:50:00,56.5,47.9,30.11,SW,215,0.0,7.0,73,0.00,,,0.00,0,Wunderground v.1.15,2013-03-15 03:50:00,
2013-03-14 23:55:00,56.3,47.8,30.11,SW,215,0.0,7.0,73,0.00,,,0.00,0,Wunderground v.1.15,2013-03-15 03:55:00,